Stetsonville, WI

4:40 PM CDT on August 23, 2016 (GMT -0500)
Taylor County

Weather History for KMDZ - August, 2013

Change the Weather History Date:

Tuesday, August 13, 2013

  Actual Average Record
Temperature  
Mean Temperature 54 °F -  
Max Temperature 67 °F 78 °F 88 °F (1988)
Min Temperature 41 °F 55 °F 39 °F (2004)
Degree Days  
Heating Degree Days 12    
Growing Degree Days 4 (Base 50)    
Moisture  
Dew Point 44 °F    
Average Humidity 73    
Maximum Humidity 99    
Minimum Humidity 43    
Precipitation  
Precipitation 0.00 in - - ()
Sea Level Pressure  
Sea Level Pressure 30.00 in    
Wind  
Wind Speed 4 mph (North)    
Max Wind Speed 15 mph    
Max Gust Speed 21 mph    
Visibility 10 miles    
Events      
Averages and records for this station are not official NWS values.
T = Trace of Precipitation, MM = Missing Value Source: NWS Daily Summary

Daily Weather History Graph

Daily Weather History Graph

Search for Another Location

Airport or City:

Trip Planner

Search our weather history database for the weather conditions in past years. The results will help you decide how hot, cold, wet, or windy it might be!

Date:

Astronomy

Aug. 13, 2013 Rise Set
Actual Time 6:00 AM CDT 8:10 PM CDT
Civil Twilight 5:28 AM CDT 8:42 PM CDT
Nautical Twilight 4:48 AM CDT 9:22 PM CDT
Astronomical Twilight 4:04 AM CDT 10:06 PM CDT
Moon 1:17 PM CDT (8/13) 11:23 PM CDT (8/13)
Length of Visible Light 15h 14m
Length of Day
14h 09m
Waxing Crescent, 42% of the Moon is Illuminated
Aug 13
Waxing Crescent
Aug 14
First Quarter
Aug 20
Full
Aug 28
Last Quarter
Sep 5
New

Hourly Weather History & Observations

Time (CDT) Temp. Windchill Dew Point Humidity Pressure Visibility Wind Dir Wind Speed Gust Speed Precip Events Conditions
12:15 AM 47.7 °F - 45.7 °F 93% 29.97 in 10.0 mi Calm Calm - N/A   Clear
12:35 AM 46.6 °F - 45.9 °F 97% 29.97 in 10.0 mi Calm Calm - N/A   Clear
12:55 AM 46.2 °F - 45.0 °F 95% 29.97 in 10.0 mi Calm Calm - N/A   Clear
1:15 AM 44.4 °F - 44.1 °F 99% 29.97 in 7.0 mi Calm Calm - N/A   Clear
1:35 AM 44.4 °F - 43.7 °F 97% 29.97 in 10.0 mi Calm Calm - N/A   Clear
1:55 AM 43.5 °F - 43.2 °F 99% 29.97 in 10.0 mi Calm Calm - N/A   Clear
2:15 AM 44.2 °F - 43.7 °F 98% 29.98 in 10.0 mi Calm Calm - N/A   Clear
2:35 AM 44.1 °F - 43.7 °F 99% 29.98 in 10.0 mi Calm Calm - N/A   Clear
2:55 AM 43.0 °F - 42.4 °F 98% 29.99 in 2.0 mi Calm Calm - N/A   Clear
3:15 AM 42.4 °F - 41.9 °F 98% 29.99 in 1.5 mi Calm Calm - N/A   Mist
3:35 AM 42.3 °F 40.5 °F 41.7 °F 98% 29.99 in 10.0 mi North 3.5 mph - N/A   Clear
3:55 AM 42.6 °F - 42.1 °F 98% 29.99 in 10.0 mi Calm Calm - N/A   Clear
4:15 AM 41.5 °F - 41.2 °F 99% 30.00 in 10.0 mi Calm Calm - N/A   Clear
4:35 AM 41.4 °F 39.4 °F 40.3 °F 96% 30.00 in 10.0 mi North 3.5 mph - N/A   Clear
4:55 AM 41.0 °F 38.0 °F 40.1 °F 97% 30.00 in 10.0 mi North 4.6 mph - N/A   Clear
5:15 AM 41.5 °F - 40.6 °F 97% 30.00 in 10.0 mi Calm Calm - N/A   Clear
5:35 AM 42.1 °F 39.2 °F 40.5 °F 94% 30.00 in 10.0 mi North 4.6 mph - N/A   Clear
5:55 AM 42.8 °F 41.1 °F 41.0 °F 93% 30.00 in 10.0 mi North 3.5 mph - N/A   Clear
6:15 AM 43.2 °F 40.5 °F 41.4 °F 93% 30.01 in 10.0 mi North 4.6 mph - N/A   Clear
6:35 AM 44.1 °F 42.5 °F 41.5 °F 91% 30.01 in 10.0 mi North 3.5 mph - N/A   Clear
6:55 AM 44.2 °F - 42.6 °F 94% 30.01 in 10.0 mi Calm Calm - N/A   Clear
7:15 AM 46.4 °F - 44.4 °F 93% 30.02 in 10.0 mi Calm Calm - N/A   Clear
7:35 AM 49.3 °F - 44.8 °F 84% 30.02 in 10.0 mi Calm Calm - N/A   Clear
7:55 AM 51.8 °F - 45.3 °F 79% 30.03 in 10.0 mi North 3.5 mph - N/A   Clear
8:15 AM 54.3 °F - 46.4 °F 75% 30.04 in 10.0 mi NNW 3.5 mph - N/A   Clear
8:35 AM 56.3 °F - 46.2 °F 69% - 10.0 mi North 5.8 mph - N/A   Clear
8:55 AM 57.4 °F - 46.4 °F 67% - 10.0 mi NNW 8.1 mph - N/A   Clear
9:15 AM 58.5 °F - 47.3 °F 66% - 10.0 mi NNW 10.4 mph - N/A   Clear
9:35 AM 59.2 °F - 47.7 °F 66% - 10.0 mi North 11.5 mph - N/A   Clear
9:55 AM 60.1 °F - 48.6 °F 66% - 10.0 mi NNW 9.2 mph - N/A   Clear
10:15 AM 60.8 °F - 48.2 °F 63% - 10.0 mi NNW 9.2 mph - N/A   Clear
10:35 AM 62.2 °F - 47.1 °F 58% - 10.0 mi NNW 12.7 mph - N/A   Clear
10:55 AM 63.3 °F - 46.9 °F 55% - 10.0 mi NNW 11.5 mph 17.3 mph N/A   Clear
11:15 AM 64.2 °F - 46.4 °F 52% - 10.0 mi NNW 13.8 mph 18.4 mph N/A   Scattered Clouds
11:35 AM 64.0 °F - 46.8 °F 53% - 10.0 mi NW 8.1 mph - N/A   Mostly Cloudy
11:55 AM 62.2 °F - 43.9 °F 51% - 10.0 mi North 11.5 mph 19.6 mph N/A   Mostly Cloudy
12:15 PM 62.2 °F - 44.6 °F 52% - 10.0 mi North 10.4 mph 18.4 mph N/A   Overcast
12:35 PM 65.5 °F - 44.4 °F 46% - 10.0 mi NNW 15.0 mph 20.7 mph N/A   Mostly Cloudy
12:55 PM 63.9 °F - 42.6 °F 46% - 10.0 mi NNW 13.8 mph 20.7 mph N/A   Mostly Cloudy
1:15 PM 64.6 °F - 43.5 °F 46% - 10.0 mi North 11.5 mph 16.1 mph N/A   Overcast
1:35 PM 65.7 °F - 43.0 °F 44% - 10.0 mi NNW 10.4 mph - N/A   Overcast
1:55 PM 65.3 °F - 43.9 °F 46% - 10.0 mi NNW 13.8 mph 18.4 mph N/A   Overcast
2:15 PM 64.9 °F - 43.3 °F 45% - 10.0 mi North 10.4 mph 16.1 mph N/A   Overcast
2:35 PM 66.2 °F - 45.3 °F 47% - 10.0 mi NNW 11.5 mph 17.3 mph N/A   Overcast
2:55 PM 65.5 °F - 42.6 °F 43% - 10.0 mi North 12.7 mph 18.4 mph N/A   Overcast
3:15 PM 64.2 °F - 43.5 °F 47% - 10.0 mi North 11.5 mph - N/A   Overcast
3:35 PM 64.9 °F - 45.0 °F 48% - 10.0 mi NNW 8.1 mph - N/A   Mostly Cloudy
3:55 PM 64.6 °F - 43.7 °F 47% - 10.0 mi North 12.7 mph 17.3 mph N/A   Overcast
4:15 PM 64.4 °F - 43.7 °F 47% - 10.0 mi North 10.4 mph 17.3 mph N/A   Overcast
4:35 PM 66.2 °F - 44.1 °F 45% - 10.0 mi NNW 10.4 mph 16.1 mph N/A   Mostly Cloudy
4:55 PM 66.9 °F - 45.5 °F 46% - 10.0 mi NNE 10.4 mph 16.1 mph N/A   Mostly Cloudy
5:15 PM 64.6 °F - 43.0 °F 45% - 10.0 mi NNE 9.2 mph - N/A   Overcast
5:35 PM 62.6 °F - 43.5 °F 50% - 10.0 mi North 5.8 mph - N/A   Mostly Cloudy
5:55 PM 65.1 °F - 44.2 °F 47% - 10.0 mi North 8.1 mph - N/A   Scattered Clouds
6:55 PM 63.5 °F - 44.1 °F 49% - 10.0 mi North 9.2 mph - N/A   Clear
7:15 PM 62.1 °F - 44.2 °F 52% - 10.0 mi North 5.8 mph - N/A   Clear
7:35 PM 60.6 °F - 45.5 °F 57% - 10.0 mi North 3.5 mph - N/A   Clear
7:55 PM 58.3 °F - 45.5 °F 62% - 10.0 mi NNE 4.6 mph - N/A   Clear
8:15 PM 56.1 °F - 45.1 °F 67% - 10.0 mi NNE 5.8 mph - N/A   Clear
8:35 PM 54.5 °F - 45.5 °F 72% - 10.0 mi Calm Calm - N/A   Clear
8:55 PM 51.3 °F - 46.2 °F 83% - 10.0 mi Calm Calm - N/A   Clear
9:15 PM 49.8 °F - 46.2 °F 87% - 10.0 mi Calm Calm - N/A   Clear
9:35 PM 48.0 °F - 45.9 °F 92% - 10.0 mi Calm Calm - N/A   Clear
9:55 PM 46.9 °F - 45.7 °F 95% - 10.0 mi Calm Calm - N/A   Clear
10:15 PM 46.6 °F - 45.3 °F 95% - 10.0 mi NNE 3.5 mph - N/A   Clear
10:35 PM 47.7 °F - 45.0 °F 90% - 10.0 mi Calm Calm - N/A   Clear
10:55 PM 46.8 °F - 44.8 °F 93% - 10.0 mi Calm Calm - N/A   Clear
11:15 PM 45.7 °F - 44.6 °F 96% - 10.0 mi Calm Calm - N/A   Clear
11:35 PM 44.1 °F - 43.5 °F 98% - 10.0 mi Calm Calm - N/A   Clear
11:55 PM 45.3 °F 44.0 °F 44.2 °F 96% - 10.0 mi ENE 3.5 mph - N/A   Clear